TimeCDT,TemperatureF,Dew PointF,Humidity,Sea Level PressureIn,VisibilityMPH,Wind Direction,Wind SpeedMPH,Gust SpeedMPH,PrecipitationIn,Events,Conditions,WindDirDegrees,DateUTC
12:53 AM,71.1,62.1,73,30.00,9.0,SSW,5.8,-,N/A,,Clear,200,2013-09-07 05:53:00
1:53 AM,66.9,62.1,84,29.99,9.0,SSW,5.8,-,N/A,,Clear,210,2013-09-07 06:53:00
2:53 AM,66.9,61.0,81,29.99,9.0,SSW,3.5,-,N/A,,Clear,200,2013-09-07 07:53:00
3:53 AM,64.9,60.1,84,29.98,9.0,South,4.6,-,N/A,,Clear,190,2013-09-07 08:53:00
4:53 AM,64.0,60.1,87,29.99,7.0,South,5.8,-,N/A,,Clear,190,2013-09-07 09:53:00
5:53 AM,63.0,60.1,90,29.99,8.0,South,6.9,-,N/A,,Clear,190,2013-09-07 10:53:00
6:53 AM,64.0,60.1,87,30.00,9.0,SSW,5.8,-,N/A,,Clear,200,2013-09-07 11:53:00
7:53 AM,68.0,62.1,81,29.99,8.0,SSW,5.8,-,N/A,,Clear,200,2013-09-07 12:53:00
8:53 AM,73.0,63.0,71,29.99,10.0,SSW,5.8,-,N/A,,Clear,210,2013-09-07 13:53:00
9:53 AM,78.1,64.0,62,29.99,7.0,SW,5.8,-,N/A,,Clear,220,2013-09-07 14:53:00
10:53 AM,82.9,64.9,54,29.98,7.0,SSW,6.9,-,N/A,,Clear,200,2013-09-07 15:53:00
11:53 AM,87.1,66.0,49,29.96,10.0,SSW,8.1,-,N/A,,Clear,200,2013-09-07 16:53:00
12:53 PM,86.0,66.0,51,29.91,8.0,South,16.1,-,N/A,,Clear,190,2013-09-07 17:53:00
1:53 PM,90.0,66.9,46,29.91,10.0,South,11.5,-,N/A,,Clear,170,2013-09-07 18:53:00
2:53 PM,91.9,66.9,44,29.88,10.0,SSW,10.4,-,N/A,,Clear,210,2013-09-07 19:53:00
3:53 PM,93.9,66.0,40,29.87,8.0,SSW,11.5,-,N/A,,Clear,210,2013-09-07 20:53:00
4:53 PM,93.9,66.0,40,29.86,10.0,South,9.2,-,N/A,,Clear,190,2013-09-07 21:53:00
5:53 PM,91.9,68.0,45,29.86,10.0,South,6.9,-,N/A,,Clear,190,2013-09-07 22:53:00
6:53 PM,87.1,69.1,55,29.86,10.0,South,5.8,-,N/A,,Clear,180,2013-09-07 23:53:00
7:53 PM,84.9,68.0,57,29.85,10.0,South,8.1,-,N/A,,Clear,180,2013-09-08 00:53:00
8:53 PM,84.9,66.9,55,29.86,10.0,SSW,5.8,-,N/A,,Clear,200,2013-09-08 01:53:00
9:53 PM,80.1,69.1,69,29.87,9.0,South,6.9,-,0.00,Rain,Light Rain,180,2013-09-08 02:53:00
10:53 PM,80.1,68.0,67,29.87,10.0,South,5.8,-,0.00,,Clear,190,2013-09-08 03:53:00
11:53 PM,80.1,66.9,64,29.87,10.0,South,4.6,-,N/A,,Overcast,180,2013-09-08 04:53:00